Volver al catálogo

CZ-6A DEB

ActivoPO
NORAD 61451·DEBRIS·🇨🇳 China

Lanzado Aug 6, 2024 desde Taiyuan Satellite Launch Center

Loading…

Próximos Pases (próximas 24 horas)

TLE

ActualizadoSource: Space-Track

Época: Sep 14, 2026, 06:44 UTC

1 61451U 24140ZH  26257.28092616  .00004308  00000-0  72652-3 0  9994
2 61451  89.0328 262.6509 0106446 292.7779  66.2218 14.65619545106304

Sigue CZ-6A DEB en tiempo real con AllMySat

Download on the App Store